C/2019 T2 ( Lemmon )

Japanese version
Home page
Updated on July 4, 2020

---------------------------------------------------------------------

* Profile

Discovery Date October 9, 2019
Magnitude 20.6 mag
Discoverer Mt. Lemmon Survey

* Orbital Elements

Epoch 2021 Apr. 16.0 TT = JDT 2459320.5                                         
T 2021 Apr. 22.28988 TT                                 Rudenko                 
q   2.6460551            (2000.0)            P               Q                  
z  +0.0005342      Peri.  239.38587     +0.33390254     -0.86095273             
 +/-0.0000035      Node   155.64269     -0.13766441     +0.35821666             
e   0.9985865      Incl.  111.48906     -0.93250072     -0.36116647             
From 133 observations 2019 Aug. 26-2020 July 3, mean residual 0".4.             

* Finding Charts

* Magnitudes Graph

        m1 = 8.0 + 5 log d + 11.0 log r

---------------------------------------------------------------------

The orbital elements are published on M.P.E.C. 2020-N14.
The charts are made with StellaNavigator Ver.10 (AstroArts).
The magnitudes graphs are made with Comet for Windows.

---------------------------------------------------------------------

Copyright(C) Seiichi Yoshida (comet@aerith.net). All rights reserved.